[[{"header":{"parameterUnit":"m.s-1","parameterCategory":1,"la1":30.2991,"la2":30.254,"lo1":-89.0895,"lo2":-89.0444,"dy":0.0017,"dx":0.0017,"nx":28,"ny":28,"refTime":"2024-10-16T09:00:00:Z","depth":0,"parameterNumber":2,"parameterNumberName":"U-component_of_WINDS"},"data":[0,0,0,0,0,0,0,0,0,0,0,0,0,0,0,0,0,0,0,0,0,0,0,0,0,0,0,0,0,0,0,0,0,0,0,0,0,0,0,0,0,0,0,0,0,0,0,0,0,0,0,0,0,0,0,0,0,0,-4.4914,-4.4915,0,-4.4959,-4.4959,-4.496,-4.4749,-4.4743,-4.4737,-4.4731,-4.4779,-4.4786,-4.4792,0,0,0,0,0,0,0,0,0,0,0,0,0,-4.4647,-4.4653,-4.4914,-4.4915,-4.4915,-4.4959,-4.4959,-4.496,-4.475,-4.4742,-4.4735,-4.4728,-4.4776,-4.4785,-4.4793,0,0,0,0,0,0,0,0,0,0,0,0,0,-4.4735,-4.4655,-4.4914,-4.4816,-4.4807,-4.4959,-4.4959,-4.496,-4.4751,-4.4742,-4.4733,-4.4724,-4.4774,-4.4784,-4.4794,-4.5043,0,0,-4.4826,-4.4831,0,0,0,0,0,0,0,0,-4.473,-4.4745,-4.483,-4.4823,-4.4814,-4.4839,-4.4882,-4.4988,-4.4754,-4.4773,-4.4731,-4.472,-4.4806,-4.4814,-4.4842,-4.5045,-4.5047,-4.4827,-4.4834,-4.4838,-4.4841,0,0,0,0,0,0,0,-4.4724,-4.4742,-4.4932,-4.4831,-4.4821,-4.4769,-4.4772,-4.4902,-4.4841,-4.477,-4.4755,-4.4763,-4.48,-4.4833,-4.4842,-4.5048,-4.4827,-4.4836,-4.4843,-4.4847,-4.5456,-4.5465,0,0,0,0,0,0,-4.4731,-4.4738,-4.493,-4.4933,-4.4748,-4.4782,-4.4784,-4.484,-4.4839,-4.483,-4.4771,-4.4753,-4.4819,-4.483,-4.4843,-4.5134,-4.4838,-4.4848,-4.4854,-4.5446,-4.5458,-4.5469,0,0,0,0,0,0,-4.4726,-4.475,-4.4929,-4.4832,-4.485,-4.4796,-4.4861,-4.4846,-4.4878,-4.4839,-4.4827,-4.4816,-4.4812,-4.4828,-4.4994,-4.5132,-4.4853,-4.4862,-4.5434,-4.545,-4.5463,-4.5719,0,0,0,0,0,0,-4.472,-4.475,-4.4844,-4.4835,-4.4856,-4.5081,-4.4869,-4.4853,-4.4896,-4.4873,-4.4878,-4.4869,-4.4806,-4.498,-4.5005,-4.5142,-4.487,-4.5422,-4.5441,-4.5459,-4.5698,-4.574,-4.5777,0,0,0,0,0,-4.4711,-4.4915,-4.485,-4.4875,-4.4973,-4.5089,-4.5101,-4.5024,-4.4908,-4.5003,-4.4977,-4.4869,-4.5113,-4.4999,-4.5025,-4.5167,-4.5413,-4.5436,-4.5457,-4.568,-4.5732,-4.5776,0,0,0,0,0,0,-4.4944,-4.4912,-4.484,-4.5048,-4.5073,-4.5053,-4.517,-4.5081,-4.514,-4.5117,-4.5018,-4.5021,-4.5205,-4.5201,-4.5075,-4.5407,-4.5243,-4.5271,-4.5403,-4.5452,-4.5491,-4.5489,-4.4879,0,0,0,0,0,-4.5019,-4.5115,-4.5082,-4.5269,-4.5285,-4.5226,-4.5273,-4.5211,-4.5233,-4.5243,-4.523,-4.5256,-4.5337,-4.5394,-4.5467,-4.5695,-4.5693,-4.5805,-4.5845,-4.5877,-4.5904,-4.6024,-4.6074,-4.5542,-4.5541,-4.5541,0,0,-4.5176,-4.517,-4.5238,-4.5315,-4.5327,-4.543,-4.5236,-4.5353,-4.5428,-4.5261,-4.5417,-4.5409,-4.5431,-4.5629,-4.5715,-4.5632,-4.605,-4.5906,-4.5932,-4.5941,-4.6052,-4.6102,-4.6147,-4.5557,-4.5554,-4.5552,0,0,-4.5515,-4.552,-4.5676,-4.5691,-4.5711,-4.5669,-4.5707,-4.5701,-4.5688,-4.5843,-4.5719,-4.5807,-4.595,-4.5971,-4.6,-4.6344,-4.6247,-4.637,-4.6578,-4.6696,-4.6738,-4.6775,-4.6898,-4.6943,-4.6396,-4.6397,-4.6397,0,-4.5708,-4.5857,-4.5767,-4.5892,-4.593,-4.5781,-4.5937,-4.5956,-4.6,-4.603,-4.5935,-4.6111,-4.6115,-4.6316,-4.64,-4.6428,-4.6468,-4.6371,-4.6739,-4.6775,-4.6808,-4.6924,-4.6971,-4.6412,-4.641,-4.6408,-4.6407,0,-4.6094,-4.6199,-4.6322,-4.6366,-4.6417,-4.6558,-4.6489,-4.6551,-4.6484,-4.6453,-4.6612,-4.6611,-4.6681,-4.6723,-4.6659,-4.6915,-4.6863,-4.6755,-4.6589,-4.6875,-4.6983,-4.7027,-4.6433,-4.6428,-4.6423,-4.642,0,0,-4.6585,-4.6575,-4.6622,-4.664,-4.6649,-4.6729,-4.6861,-4.6928,-4.6984,-4.7018,-4.7127,-4.725,-4.715,-4.7184,-4.712,-4.7223,-4.7496,-4.7102,-4.7101,-4.7177,-4.7778,-4.7861,-4.7914,-4.743,-4.7438,-4.7444,-4.7776,0,-4.6917,-4.7144,-4.7065,-4.7296,-4.7392,-4.725,-4.7365,-4.7384,-4.7357,-4.7434,-4.7404,-4.7494,-4.7354,-4.7374,-4.7469,-4.7443,-4.7616,-4.7417,-4.7532,-4.7537,-4.7534,-4.797,-4.8058,-4.8372,-4.7818,-4.7825,-4.783,0,-4.7337,-4.7386,-4.7627,-4.7618,-4.7655,-4.7761,-4.7815,-4.789,-4.7908,-4.7881,-4.7917,-4.7831,-4.796,-4.7791,-4.7967,-4.7834,-4.7876,-4.787,-4.788,-4.789,-4.7703,-4.7994,-4.847,-4.8518,-4.7896,-4.789,-4.7886,0,-4.7673,-4.7799,-4.7959,-4.7978,-4.7972,-4.8049,-4.805,-4.8058,-4.8103,-4.815,-4.8178,-4.824,-4.8276,-4.8325,-4.8258,-4.8141,-4.8445,-4.827,-4.8427,-4.8429,-4.85,-4.8497,-4.8992,-4.8524,-4.8523,-4.8522,-4.8521,0,-4.8054,-4.8207,-4.8109,-4.8208,-4.8375,-4.8282,-4.845,-4.8435,-4.8442,-4.8535,-4.8416,-4.8506,-4.8409,-4.8491,-4.8438,-4.8593,-4.8609,-4.8591,-4.8576,-4.8604,-4.8606,-4.8632,-4.8609,-4.8534,-4.8532,-4.8529,-4.8527,0,-4.8459,-4.8399,-4.8564,-4.8543,-4.8542,-4.8666,-4.8648,-4.8738,-4.8701,-4.8821,-4.8843,-4.8787,-4.8876,-4.8812,-4.89,-4.8865,-4.9069,-4.9022,-4.9063,-4.9051,-4.9212,-4.9199,-4.9743,-4.981,-4.9297,-4.9302,-4.9306,0,-4.8707,-4.8822,-4.8812,-4.8866,-4.8874,-4.8962,-4.9006,-4.8918,-4.897,-4.8996,-4.9084,-4.9162,-4.922,-4.9368,-4.9335,-4.9402,-4.9357,-4.9543,-4.9367,-4.939,-4.9362,-4.9357,-4.9368,-4.958,-4.9586,-4.9591,-4.9595,0,-4.9156,-4.912,-4.9188,-4.9247,-4.9303,-4.9345,-4.9378,-4.9428,-4.9339,-4.9402,-4.9491,-4.9536,-4.9625,-4.9705,-4.9759,-4.9759,-4.9664,-4.965,-4.969,-4.9721,-4.9741,-4.9733,-4.9163,-4.9639,-4.9634,-4.9631,-4.9629,-4.9627,-4.9491,-4.9585,-4.9593,-4.9673,-4.9688,-4.972,-4.9804,-4.9776,-4.9849,-4.9914,-4.9857,-4.9964,-4.9975,-5.0038,-5.005,-5.0132,-5.0056,-5.0114,-5.0129,-5.0145,-5.0169,-4.9726,-5.0141,-5.014,-5.0139,-5.0137,-5.0136,0,-4.9934,-4.9931,-5.0005,-5.0054,-5.0117,-5.0018,-5.0048,-5.0107,-5.0202,-5.0221,-5.028,-5.0381,-5.0457,-5.0429,-5.0495,-5.0566,-5.0524,-5.0587,-5.0582,-5.0584,-5.0232,-5.0192,-5.062,-5.062,-5.062,-5.062,-5.062,-5.062,-5.0172,-5.0327,-5.0292,-5.0452,-5.0447,-5.055,-5.0576,-5.0605,-5.0619,-5.0738,-5.0799,-5.0779,-5.0779,-5.0844,-5.0909,-5.0898,-5.093,-5.1009,-5.0984,-5.0656,-5.0609,-5.0563,-5.0525,-5.1016,-5.1017,-5.1328,-5.1331,-5.1333]},{"header":{"parameterUnit":"m.s-1","parameterCategory":1,"la1":30.2991,"la2":30.254,"lo1":-89.0895,"lo2":-89.0444,"dy":0.0017,"dx":0.0017,"nx":28,"ny":28,"refTime":"2024-10-16T09:00:00:Z","depth":0,"parameterNumber":3,"parameterNumberName":"V-component_of_WINDS"},"data":[0,0,0,0,0,0,0,0,0,0,0,0,0,0,0,0,0,0,0,0,0,0,0,0,0,0,0,0,0,0,0,0,0,0,0,0,0,0,0,0,0,0,0,0,0,0,0,0,0,0,0,0,0,0,0,0,0,0,-4.5713,-4.5714,0,-4.5767,-4.5767,-4.5768,-4.5726,-4.5724,-4.5723,-4.5721,-4.5772,-4.5775,-4.5778,0,0,0,0,0,0,0,0,0,0,0,0,0,-4.5569,-4.5572,-4.5713,-4.5714,-4.5714,-4.5766,-4.5767,-4.5768,-4.5726,-4.5724,-4.5722,-4.572,-4.5771,-4.5775,-4.5778,0,0,0,0,0,0,0,0,0,0,0,0,0,-4.5628,-4.5573,-4.5713,-4.57,-4.5699,-4.5766,-4.5767,-4.5768,-4.5727,-4.5724,-4.5722,-4.5719,-4.577,-4.5774,-4.5779,-4.586,0,0,-4.5793,-4.5795,0,0,0,0,0,0,0,0,-4.5625,-4.5634,-4.5701,-4.5701,-4.5701,-4.5737,-4.5735,-4.5799,-4.5728,-4.5716,-4.5721,-4.5718,-4.5762,-4.5767,-4.5783,-4.5863,-4.5865,-4.5793,-4.5796,-4.5798,-4.5799,0,0,0,0,0,0,0,-4.5621,-4.5631,-4.5734,-4.5702,-4.5702,-4.569,-4.5695,-4.5747,-4.5754,-4.5717,-4.5714,-4.5721,-4.5762,-4.5779,-4.5784,-4.5866,-4.5793,-4.5797,-4.58,-4.5802,-4.601,-4.6012,0,0,0,0,0,0,-4.5619,-4.5628,-4.5732,-4.5736,-4.5656,-4.5695,-4.5701,-4.5728,-4.5753,-4.5754,-4.5724,-4.5719,-4.5772,-4.5779,-4.5786,-4.5879,-4.5798,-4.5802,-4.5805,-4.6007,-4.601,-4.6013,0,0,0,0,0,0,-4.5616,-4.5629,-4.573,-4.5681,-4.5693,-4.57,-4.5731,-4.573,-4.5748,-4.5758,-4.5758,-4.574,-4.5771,-4.5779,-4.5841,-4.588,-4.5804,-4.5808,-4.6004,-4.6008,-4.6012,-4.6069,0,0,0,0,0,0,-4.5612,-4.5628,-4.566,-4.5682,-4.5696,-4.5787,-4.5733,-4.5733,-4.5756,-4.5751,-4.5774,-4.5775,-4.5769,-4.5835,-4.5846,-4.5885,-4.5812,-4.6,-4.6006,-4.6011,-4.6064,-4.6075,-4.6084,0,0,0,0,0,-4.5607,-4.5674,-4.5662,-4.5675,-4.5737,-4.5789,-4.5797,-4.579,-4.5759,-4.5791,-4.5797,-4.5774,-4.5875,-4.5841,-4.5853,-4.5895,-4.5998,-4.6004,-4.601,-4.6059,-4.6073,-4.6084,0,0,0,0,0,0,-4.5657,-4.5677,-4.5664,-4.5741,-4.5764,-4.5782,-4.5822,-4.5805,-4.5836,-4.583,-4.5819,-4.5824,-4.5889,-4.5898,-4.5861,-4.5973,-4.5931,-4.594,-4.5964,-4.5977,-4.5987,-4.5982,-4.5816,0,0,0,0,0,-4.5677,-4.5719,-4.5734,-4.58,-4.5812,-4.5815,-4.5838,-4.583,-4.5853,-4.5862,-4.5873,-4.5895,-4.593,-4.5955,-4.5989,-4.6065,-4.6068,-4.61,-4.611,-4.6118,-4.6125,-4.6163,-4.6176,-4.6034,-4.6034,-4.6034,0,0,-4.5718,-4.5735,-4.5762,-4.5811,-4.5827,-4.5869,-4.5824,-4.5871,-4.59,-4.5869,-4.5927,-4.5936,-4.5959,-4.6028,-4.6058,-4.6038,-4.6165,-4.6126,-4.6133,-4.6136,-4.617,-4.6184,-4.6196,-4.6038,-4.6038,-4.6037,0,0,-4.5814,-4.5833,-4.5888,-4.5905,-4.5931,-4.5932,-4.5946,-4.5966,-4.5971,-4.6029,-4.6005,-4.604,-4.6104,-4.612,-4.6137,-4.6237,-4.6215,-4.6248,-4.6301,-4.6337,-4.6348,-4.6358,-4.639,-4.6402,-4.6256,-4.6256,-4.6256,0,-4.5862,-4.5925,-4.5918,-4.5966,-4.5986,-4.596,-4.6014,-4.6031,-4.6067,-4.6081,-4.6057,-4.6134,-4.6148,-4.6218,-4.6242,-4.6258,-4.627,-4.6244,-4.6348,-4.6357,-4.6366,-4.6396,-4.6409,-4.6259,-4.6259,-4.6259,-4.6258,0,-4.5981,-4.6025,-4.6066,-4.6101,-4.6126,-4.6177,-4.6175,-4.6201,-4.6191,-4.6194,-4.6252,-4.6268,-4.6303,-4.632,-4.6311,-4.6388,-4.6373,-4.6349,-4.6306,-4.6383,-4.6411,-4.6423,-4.6264,-4.6263,-4.6262,-4.6261,0,0,-4.611,-4.6138,-4.6153,-4.6167,-4.6193,-4.6225,-4.6274,-4.6309,-4.6329,-4.6355,-4.6392,-4.6446,-4.6423,-4.6442,-4.6434,-4.6466,-4.6539,-4.6438,-4.6438,-4.6453,-4.6621,-4.6637,-4.6651,-4.6527,-4.6529,-4.6531,-4.6618,0,-4.6204,-4.6289,-4.6283,-4.6362,-4.64,-4.6375,-4.6416,-4.6435,-4.6438,-4.647,-4.6473,-4.651,-4.6478,-4.6489,-4.652,-4.6524,-4.6572,-4.6518,-4.6559,-4.656,-4.6551,-4.6666,-4.6683,-4.6765,-4.6629,-4.6631,-4.6632,0,-4.6326,-4.6354,-4.6437,-4.6454,-4.6469,-4.6507,-4.6536,-4.6568,-4.6588,-4.6588,-4.6608,-4.6594,-4.664,-4.6598,-4.6659,-4.6622,-4.6638,-4.6643,-4.6645,-4.6647,-4.6599,-4.6667,-4.6791,-4.6802,-4.665,-4.6649,-4.6648,0,-4.6407,-4.6466,-4.6522,-4.6535,-4.6557,-4.6583,-4.6593,-4.6611,-4.6631,-4.6657,-4.6669,-4.67,-4.6716,-4.6739,-4.6733,-4.6703,-4.6794,-4.6752,-4.6792,-4.6792,-4.6811,-4.6809,-4.6936,-4.6827,-4.6826,-4.6826,-4.6826,0,-4.6511,-4.6562,-4.6558,-4.6593,-4.6647,-4.6639,-4.6693,-4.67,-4.6715,-4.6748,-4.6729,-4.676,-4.6752,-4.6782,-4.6778,-4.6826,-4.6835,-4.6834,-4.6831,-4.6834,-4.6834,-4.6842,-4.6835,-4.6829,-4.6829,-4.6828,-4.6828,0,-4.661,-4.661,-4.6669,-4.6685,-4.6689,-4.6729,-4.6741,-4.6772,-4.6773,-4.6815,-4.6825,-4.6827,-4.6861,-4.6858,-4.6897,-4.6894,-4.6953,-4.6946,-4.6947,-4.6944,-4.6983,-4.6978,-4.7117,-4.7133,-4.7017,-4.7018,-4.7019,0,-4.6675,-4.6713,-4.6732,-4.6753,-4.6765,-4.68,-4.682,-4.6812,-4.6834,-4.6858,-4.6885,-4.6918,-4.6943,-4.6999,-4.7003,-4.7032,-4.7022,-4.7069,-4.7027,-4.7027,-4.7019,-4.7015,-4.7017,-4.7077,-4.7078,-4.7079,-4.708,0,-4.6789,-4.6787,-4.6817,-4.6847,-4.6871,-4.6894,-4.6915,-4.6933,-4.6927,-4.6952,-4.6987,-4.7007,-4.7046,-4.7077,-4.7104,-4.7112,-4.7094,-4.7094,-4.7104,-4.7105,-4.7103,-4.7101,-4.6966,-4.709,-4.7089,-4.7088,-4.7088,-4.7087,-4.6871,-4.6902,-4.6919,-4.6953,-4.6967,-4.6987,-4.7015,-4.702,-4.7049,-4.708,-4.7074,-4.7113,-4.7129,-4.7163,-4.7174,-4.7202,-4.7185,-4.7201,-4.7204,-4.7207,-4.721,-4.7101,-4.7208,-4.7207,-4.7207,-4.7207,-4.7207,0,-4.698,-4.699,-4.7021,-4.705,-4.7075,-4.7058,-4.7079,-4.7101,-4.7135,-4.7152,-4.7177,-4.7216,-4.7246,-4.7252,-4.728,-4.7301,-4.7293,-4.7308,-4.7305,-4.7307,-4.7226,-4.7213,-4.7314,-4.7314,-4.7314,-4.7314,-4.7314,-4.7314,-4.704,-4.7091,-4.709,-4.7147,-4.7156,-4.7193,-4.7206,-4.7223,-4.7236,-4.728,-4.7305,-4.7309,-4.732,-4.7349,-4.7374,-4.7375,-4.7385,-4.7403,-4.74,-4.7324,-4.7313,-4.7302,-4.729,-4.7406,-4.7406,-4.7478,-4.7478,-4.7479]}]]